Regional Weather Roundup
Issued by NWS Kansas City/Pleasant Hill, MO

Home | Current Version | Previous Version | Graphics & Text | Print | Product List | Glossary Off
Versions: 1 2 3 4 5 6 7 8 9 10 11 12 13 14 15 16 17 18 19 20 21 22 23 24 25 26 27 28

000
ASUS43 KEAX 270610
RWREAX

WEATHER ROUNDUP FOR EASTERN KANSAS AND NORTHWEST MISSOURI
NATIONAL WEATHER SERVICE KANSAS CITY/PLEASANT HILL MO
100 AM CDT FRI MAY 27 2016

KSZ040-057-103>105-MOZ028-029-037-043-270700-
...KANSAS CITY METROPOLITAN AREA...

CITY           SKY/WX    TMP DP  RH WIND       PRES   REMARKS
K.C. INTL      CLOUDY    63  60  90 E10       29.86S
6HR MIN TEMP:  61; 6HR MAX TEMP:  64; 6HR PCP:  0.73;

K.C. DOWNTOWN  CLOUDY    64  62  93 E9        29.84F
6HR MIN TEMP:  63; 6HR MAX TEMP:  66; 6HR PCP:  1.02;

LEES SUMMIT    CLOUDY    63  62  97 E9        29.87S
6HR MIN TEMP:  62; 6HR MAX TEMP:  64; 6HR PCP:  0.58;

OLATHE - IXD   CLOUDY    63  61  93 E9        29.84F
6HR MIN TEMP:  62; 6HR MAX TEMP:  64; 6HR PCP:  0.58;

OLATHE - OJC   CLOUDY    62  61  96 E10       29.84F
6HR MIN TEMP:  62; 6HR MAX TEMP:  63; 6HR PCP:  0.88;

LAWRENCE       CLOUDY    63  61  93 SE14G31   29.80F

$$

MOZ001>008-011>017-020>025-030>033-038>040-044>046-053-054-270700-
...NORTHERN AND CENTRAL MISSOURI...

CITY           SKY/WX    TMP DP  RH WIND       PRES   REMARKS
ST. JOSEPH     LGT RAIN  63  60  90 E15       29.78F
6HR MIN TEMP:  62; 6HR MAX TEMP:  65; 6HR PCP:  0.57;

MOSBY          CLOUDY    63  63 100 CALM      29.87R
WARRENSBURG    CLOUDY    61  61 100 NE3       29.87R
WHITEMAN AFB   CLOUDY    63  63 100 SE7       29.85F
6HR MIN TEMP:  62; 6HR MAX TEMP:  67; 6HR PCP:  0.97;

CLINTON        CLOUDY    64  64 100 E6        29.87F
SEDALIA        CLOUDY    65  63  93 MISG      29.88F
6HR MIN TEMP:  64; 6HR MAX TEMP:  69; 6HR PCP:  0.60;

WARSAW         NOT AVBL
CHILLICOTHE      N/A     64  61  90 NE6       29.87F
6HR MIN TEMP:  63; 6HR MAX TEMP:  65; 6HR PCP:  1.02;

KIRKSVILLE     LGT RAIN  63  61  93 NE7       29.86F
6HR MIN TEMP:  63; 6HR MAX TEMP:  72; 6HR PCP:  0.40;


$$

MOZ041-047>049-056>058-063>065-088>090-097-270700-
...EASTERN AND SOUTHERN MISSOURI...

CITY           SKY/WX    TMP DP  RH WIND       PRES   REMARKS
ST. LOUIS INTL LGT RAIN  71  66  84 SW7       29.93F
6HR MIN TEMP:  71; 6HR MAX TEMP:  78; 6HR PCP:  0.04;

SPIRIT OF STL  LGT RAIN  70  68  94 SW3       29.92S
COLUMBIA       RAIN      64  63  96 SE7       29.90R FOG
JEFFERSON CITY LGT RAIN  65  64  97 SE7       29.90R
ROLLA          CLOUDY    65  63  93 E7        29.91F
SPRINGFIELD    CLOUDY    69  64  84 SE7       29.87R
JOPLIN         CLOUDY    66  60  81 E5        29.85S
WEST PLAINS    CLOUDY    68  64  87 SE10      29.94S

$$

IAZ060-094-KSZ022-034>040-054-083-096-NEZ052-066-093-270700-
...KANSAS...SOUTHEAST NEBRASKA AND IOWA...

CITY           SKY/WX    TMP DP  RH WIND       PRES   REMARKS
TOPEKA         TSTM      63  61  93 W15       29.83R
6HR MIN TEMP:  62; 6HR MAX TEMP:  64; 6HR PCP:  1.05;

MANHATTAN      TSTM      61  58  90 SW7       29.89R FOG
EMPORIA        TSTM      57  56  96 W7        29.87R FOG
CHANUTE        CLOUDY    67  62  84 E9        29.81F
WICHITA        TSTM      62  59  90 E12       29.81S
OMAHA          CLOUDY    65  58  78 S20G28    29.78S
LINCOLN        LGT RAIN  61  58  90 S10       29.80F
FALLS CITY     LGT RAIN  63  63 100 E10       29.80S
LAMONI         CLOUDY    61  60  97 W7        29.86F
DES MOINES     CLOUDY    65  58  78 SW10      29.81F

$$





USA.gov is the U.S. government's official web portal to all federal, state and local government web resources and services.